TimeMST,TemperatureF,Dew PointF,Humidity,Sea Level PressureIn,VisibilityMPH,Wind Direction,Wind SpeedMPH,Gust SpeedMPH,PrecipitationIn,Events,Conditions,WindDirDegrees,DateUTC
12:56 AM,57.0,25.0,29,29.89,10.0,NNW,9.2,-,N/A,,Clear,340,2013-05-10 07:56:00
1:56 AM,54.0,23.0,30,29.89,10.0,NNW,9.2,-,N/A,,Clear,330,2013-05-10 08:56:00
2:56 AM,53.1,23.0,31,29.89,10.0,NNW,9.2,-,N/A,,Clear,330,2013-05-10 09:56:00
3:56 AM,50.0,21.9,33,29.90,10.0,NNE,8.1,-,N/A,,Clear,30,2013-05-10 10:56:00
4:56 AM,52.0,24.1,34,29.90,10.0,North,10.4,-,N/A,,Clear,360,2013-05-10 11:56:00
5:56 AM,52.0,24.1,34,29.91,10.0,North,10.4,-,N/A,,Clear,350,2013-05-10 12:56:00
6:56 AM,61.0,28.0,29,29.92,10.0,NNW,4.6,-,N/A,,Clear,330,2013-05-10 13:56:00
7:56 AM,64.9,30.9,28,29.93,10.0,NW,4.6,-,N/A,,Clear,320,2013-05-10 14:56:00
8:56 AM,69.1,27.0,21,29.93,10.0,Calm,Calm,-,N/A,,Clear,0,2013-05-10 15:56:00
9:56 AM,73.0,25.0,17,29.93,10.0,East,8.1,-,N/A,,Clear,100,2013-05-10 16:56:00
10:56 AM,75.0,26.1,16,29.92,10.0,East,11.5,-,N/A,,Clear,90,2013-05-10 17:56:00
11:56 AM,75.0,26.1,16,29.90,10.0,Variable,4.6,-,N/A,,Scattered Clouds,0,2013-05-10 18:56:00
12:56 PM,73.9,24.1,16,29.90,10.0,Variable,3.5,-,N/A,,Clear,0,2013-05-10 19:56:00
1:56 PM,73.9,27.0,18,29.91,10.0,NNE,5.8,-,N/A,,Clear,30,2013-05-10 20:56:00
2:56 PM,75.9,25.0,15,29.89,10.0,NNE,13.8,17.3,N/A,,Clear,20,2013-05-10 21:56:00
3:56 PM,75.0,24.1,15,29.90,10.0,NNE,11.5,21.9,N/A,,Clear,20,2013-05-10 22:56:00
4:47 PM,69.8,33.8,27,30.08,10.0,WSW,25.3,36.8,N/A,,Overcast,240,2013-05-10 23:47:00
4:56 PM,70.0,33.1,26,29.95,10.0,WSW,19.6,33.4,N/A,,Mostly Cloudy,240,2013-05-10 23:56:00
5:56 PM,66.0,35.1,32,29.99,10.0,South,17.3,27.6,N/A,,Overcast,180,2013-05-11 00:56:00
6:56 PM,68.0,30.9,25,29.98,10.0,Variable,3.5,-,N/A,,Clear,0,2013-05-11 01:56:00
7:56 PM,66.0,34.0,30,29.99,10.0,NW,3.5,-,N/A,,Scattered Clouds,310,2013-05-11 02:56:00
8:56 PM,63.0,34.0,34,30.01,10.0,North,3.5,-,N/A,,Clear,360,2013-05-11 03:56:00
9:56 PM,61.0,33.1,35,30.02,10.0,Calm,Calm,-,N/A,,Clear,0,2013-05-11 04:56:00
10:56 PM,55.0,28.9,37,30.04,10.0,NNE,5.8,-,N/A,,Clear,20,2013-05-11 05:56:00
11:56 PM,54.0,28.9,38,30.03,10.0,South,6.9,-,N/A,,Clear,180,2013-05-11 06:56:00